#timestamp,LO_Frequency,Hit,StdDev 
1585155615.0,286047004.3,N
1585155615.9,286047004.3,N
1585155635.8,286046999.8,N
1585155655.6,286047002.7,N
1585155675.4,286047002.7,N
1585155695.3,286047001.5,N
1585155715.1,286046996.6,N
1585155735.9,286046993.4,N
1585155755.7,286046995.7,N
1585155775.5,286047007.7,N
1585155795.4,286047015.6,N
1585155815.2,286047011.1,N
1585155835.0,286047007.3,N
1585155835.9,286047007.3,N
1585155855.8,286046998.4,N
1585155875.6,286046995.7,N
1585155895.5,286046998.0,N
1585155915.3,286046996.2,N
1585155935.1,286046992.9,N
1585155955.9,286046994.6,N
1585155975.7,286046995.8,N
1585155995.5,286046993.9,N
1585156015.4,286046996.2,N
1585156035.2,286046990.7,N
1585156055.1,286046991.5,N
1585156056.0,286046991.5,N
1585156075.8,286046992.1,N
1585156095.6,286046993.5,N
1585156115.5,286046996.3,N
1585156135.3,286047002.7,N
1585156155.1,286047000.9,N
1585156175.9,286047005.1,N
1585156195.7,286047009.6,N
1585156215.6,286047011.9,N
1585156235.4,286047011.1,N
1585156255.2,286047008.6,N
1585156275.1,286047005.1,N
1585156276.0,286047005.1,N
1585156295.8,286047001.4,N
1585156315.6,286046999.8,N
1585156335.5,286047006.0,N
1585156355.3,286047012.1,N
1585156375.2,286047013.2,N
1585156395.9,286047009.2,N
1585156415.7,286047007.7,N
1585156435.6,286047008.7,N
1585156455.4,286047002.1,N
1585156475.2,286046999.0,N
1585156495.1,286047003.1,N
1585156496.0,286047003.1,N
1585156515.8,286046999.4,N
1585156535.7,286046995.2,N
1585156555.5,286046997.2,N
1585156575.3,286047000.7,N
1585156595.2,286047000.2,N
1585156615.0,286047007.5,N
1585156615.9,286047007.5,N
1585156635.7,286047003.4,N
1585156655.6,286047008.2,N
1585156675.4,286047009.5,N
1585156695.3,286047010.6,N
1585156715.1,286047001.9,N
1585156716.0,286047001.9,N
1585156735.8,286046998.5,N
1585156755.7,286047004.6,N
1585156775.5,286047004.3,N
1585156795.3,286047006.0,N
1585156815.2,286047005.7,N
1585156835.0,286047005.9,N
1585156835.9,286047005.9,N
1585156855.8,286047002.1,N
1585156875.6,286046999.1,N
1585156895.4,286046999.7,N
1585156915.3,286047004.0,N
1585156935.1,286047002.3,N
1585156955.8,286046999.7,N
1585156975.7,286047000.4,N
1585156995.5,286046999.0,N
1585157015.4,286046996.9,N
1585157035.2,286046997.0,N
1585157055.0,286046995.0,N
1585157055.9,286046995.0,N
1585157075.8,286047002.1,N
1585157095.6,286047002.6,N
1585157115.5,286046999.0,N
1585157135.3,286047000.2,N
1585157155.1,286046999.7,N
1585157175.9,286047000.0,N
1585157195.7,286047009.6,N
1585157215.5,286047009.8,N
1585157235.4,286047009.2,N
1585157255.2,286047005.0,N
1585157275.1,286047009.0,N
1585157276.0,286047009.0,N
1585157295.8,286047010.8,N
1585157315.6,286047014.3,Y
1585157335.5,286047011.5,P
1585157355.3,286047007.7,N
1585157375.1,286047013.3,P
1585157395.9,286047012.9,Y
1585157415.7,286047002.8,P
1585157435.6,286046999.5,N
1585157455.4,286047001.5,N
1585157475.2,286047000.4,N
1585157495.1,286047000.5,N
1585157496.0,286047000.5,N
1585157515.8,286047002.5,N
1585157535.7,286046999.9,N
1585157555.5,286047000.4,N
1585157575.3,286046998.2,N
1585157595.2,286046996.7,N
1585157615.0,286046999.3,N
1585157615.9,286046999.3,N
1585157635.7,286046996.7,N
1585157655.6,286046996.9,N
1585157675.4,286047001.2,N
1585157695.3,286047002.4,N
1585157715.1,286047001.2,N
1585157716.0,286047001.2,N
1585157735.8,286046998.3,N
1585157755.7,286047000.3,N
1585157775.5,286047003.2,N
1585157795.3,286047003.1,N
1585157815.2,286047003.5,N
1585157835.0,286047001.7,N
1585157835.9,286047001.7,N
1585157855.8,286047009.6,Y
1585157875.6,286047012.0,P
1585157895.4,286047004.7,N
1585157915.3,286047005.2,N
1585157935.1,286047011.7,N
1585157955.8,286047008.7,N
1585157975.7,286047006.3,N
1585157995.5,286047005.2,N
1585158015.4,286047007.0,N
1585158035.2,286047008.1,N
1585158055.0,286047012.2,Y
1585158055.9,286047012.2,P
1585158075.8,286047001.7,N
1585158095.6,286047001.5,N
1585158115.4,286047001.3,N
1585158135.3,286047003.2,N
1585158155.1,286047001.8,N
1585158175.9,286047000.1,N
1585158195.7,286047005.5,N
1585158215.5,286047018.8,Y
1585158235.4,286047024.8,P
1585158255.2,286047023.7,N
1585158275.0,286047023.9,N
1585158276.0,286047023.9,N
1585158295.8,286047020.9,N
1585158315.6,286047021.5,N
1585158335.5,286047016.2,N
1585158355.3,286047019.1,N
1585158375.1,286047017.5,N
1585158395.9,286046972.2,Y
1585158415.7,286046991.2,P
1585158435.6,286046999.1,N
1585158455.4,286046997.0,N
1585158475.2,286046994.9,N
1585158495.1,286046993.7,N
1585158496.0,286046993.7,N
1585158515.8,286046990.5,N
1585158535.7,286046995.9,N
1585158555.5,286047002.9,N
1585158575.3,286046999.8,N
1585158595.2,286046993.8,N
1585158615.0,286047004.0,N
1585158615.9,286047004.0,N
1585158635.7,286047013.7,N
1585158655.6,286047011.5,N
1585158675.4,286047007.8,N
1585158695.3,286047001.9,N
1585158715.1,286046998.2,N
1585158716.0,286046998.2,N
1585158735.8,286047006.5,N
1585158755.7,286047001.7,N
1585158775.5,286047009.2,N
1585158795.3,286047013.3,N
1585158815.2,286047019.6,N
1585158835.0,286047015.0,N
1585158835.9,286047015.0,N
1585158855.8,286047017.6,N
1585158875.6,286047021.8,N
1585158895.4,286047018.7,N
1585158915.3,286047020.3,N
1585158935.1,286047026.2,N
1585158955.9,286047027.6,N
1585158975.7,286047029.3,N
1585158995.5,286047032.7,N
1585159015.4,286047032.1,N
1585159035.2,286047040.5,Y
1585159055.1,286047032.9,P
1585159056.0,286047032.9,N
1585159075.8,286047038.7,P
1585159095.6,286047030.8,N
1585159115.5,286047031.0,Y
1585159135.3,286046991.1,P
1585159155.2,286046987.4,N
1585159175.9,286046982.4,N
1585159195.7,286046982.0,N
